DELTA 1 DEB, 42579

Orbit data source: Space-Track

DELTA 1 DEB, 42579 is space debris in SSO originally from a launch on Tue, 06 Nov 1973 UTC launched from the Air Force Western Test Range (AFWTR). Debris objects in space refer to the collection of defunct objects orbiting the Earth. Examples of debris include non-operational satellites, rocket bodies, and fragments generated from explosions, collisions, or faulty payload assembly.

Loading next visibility...
Identifier
42579, 1973-086HT
Orbit
SSO
Country
Flag of USUS
Related business
Manufacturer
Unknown
Mission
Spacecraft
Bus & Motor
Unknown
Mass
Unknown
Launch date (UTC)
1973-11-06 (53 years ago)
Launch vehicle
Unknown
Launch site
Air Force Western Test Range (AFWTR)
Object type
Payload
Rocket body
Debris
Shape & HBR
Unknown shape, 0.1 m
Radar Cross Section
Medium (>0.1 m² and <1 m²)

Expand to show TLE details & history
Last TLE update: 3 days ago

TLE from 3 days ago
0 DELTA 1 DEB
1 42579U 73086HT  26204.30142367  .00000005  00000-0  45208-3 0  9998
2 42579 102.5934 221.3182 0079091 295.3073  63.9804 12.26804603215029
Epoch: 2026-07-23T07:14Z
TLE epoch observation values (Epoch: 2026-07-23T07:14:03.005Z)
Latitude
0.00008°
Longitude
171.76129°
Altitude
1,538.395 km
Speed
7.109 km/s
True Right ascension
14h 45m 16s
True Declination
0° 00' 00"
Sunlit
Object was in daylight at epoch
Visualization orbit readout
Latitude
Unknown
Longitude
Unknown
Altitude
Unknown
Speed
Unknown
Apparent Right ascension
Unknown
Apparent Declination
Unknown
Sunlit
N/A
Visualization observer readout
Local Sidereal Time
00:10:05
Azimuth
Unknown
Elevation
Unknown
Doppler factor
Unknown
Orbital elements
Apogee altitude
1,623.457 km
Perigee altitude
1,497.879 km
Semi-major axis
7,938.805 km
Eccentricity
0.00791
Inclination
102.5934°
RAAN
221.3182°
Arg. of periapsis
295.3073°
True anomaly
64.79837°
Mean anomaly
63.9804°
Eccentric anomaly
64.38904°
Mean motion
3.06839 °/min
Orbital period
117.33 mins
BSTAR
0.00045208
Loading maneuver chart data...
Computing Atmospheric mass density...
Loading historical data...
Loading historical data...
Loading historical data...
Loading historical data...
Loading historical data...
Loading historical data...
Loading historical data...

Documentation

Showing up to 5 results
|